OBJECT F, 57171

Orbit data source: Space-Track

You're viewing an Uncataloged Satellite

Recently launched and/or uncataloged satellites may have evolving metadata. Metadata may include but not limited to: Owner, Maufacturer, Bus, Motor, and Mission.

OBJECT F, 57171 is a satellite in SSO that was launched on Tue, 27 Jun 2023 UTC via a SOYUZ-2-1B launch vehicle from the Vostochny Cosmodrome (VOSTO). Unknown objects in Earth's orbit typically refer to objects detected orbiting the Earth but have not yet been identified or cataloged. These objects could be anything from previously untracked satellites, spent rocket stages, debris from satellite collisions, or even natural meteoroids temporarily captured by Earth's gravity.

Loading next visibility...
Identifier
57171, 2023-091F
Orbit
SSO
Country
Flag of TBDTBD
Related business
None
Manufacturer
Unknown
Mission
Operational Amateur Science
Bus & Motor
Unknown
Mass
Unknown
Launch date (UTC)
2023-06-27 (3 years ago)
Launch vehicle
SOYUZ-2-1B
Launch site
Vostochny Cosmodrome (VOSTO)
Object type
Unknown
Shape & HBR
Box, 0.2 m
Radar Cross Section
0.035 m², Medium (>0.1 m² and < 1m²)

Expand to show TLE details & history
Last TLE update: 20 hours ago

TLE from 20 hours ago
0 OBJECT F
1 57171U 23091F   26207.63453596  .00008668  00000-0  35224-3 0  9991
2 57171  97.5095 269.2941 0009582 342.5144  17.5762 15.24764782170178
Epoch: 2026-07-26T15:13Z
TLE epoch observation values (Epoch: 2026-07-26T15:13:43.906Z)
Latitude
-0.00006°
Longitude
96.53152°
Altitude
488.31 km
Speed
7.624 km/s
True Right ascension
17h 57m 10s
True Declination
0° 00' 00"
Sunlit
Object was in full shadow at epoch
Visualization orbit readout
Latitude
Unknown
Longitude
Unknown
Altitude
Unknown
Speed
Unknown
Apparent Right ascension
Unknown
Apparent Declination
Unknown
Sunlit
N/A
Visualization observer readout
Local Sidereal Time
00:53:29
Azimuth
Unknown
Elevation
Unknown
Doppler factor
Unknown
Orbital elements
Apogee altitude
495.035 km
Perigee altitude
481.876 km
Semi-major axis
6,866.593 km
Eccentricity
0.00096
Inclination
97.5095°
RAAN
269.2941°
Arg. of periapsis
342.5144°
True anomaly
17.6094°
Mean anomaly
17.5762°
Eccentric anomaly
17.59279°
Mean motion
3.81444 °/min
Orbital period
94.38 mins
BSTAR
0.00035224
Loading maneuver chart data...
Computing Atmospheric mass density...
Loading historical data...
Loading historical data...
Loading historical data...
Loading historical data...
Loading historical data...
Loading historical data...
Loading historical data...

Documentation

Showing up to 5 results
|